Flag Weather past 2 weeks in Kassel, Hesse, Germany

Now
36 °F

Passing clouds.


Feels Like: 29 °F
Forecast: 33 / 40 °F
Wind: 9 mph from Southeast

Location: Kassel / Calden

Current Time: Nov 26, 2014 at 6:46:03 AM

Latest Report: Nov 26, 2014 at 6:20 AM


Visibility: 5 mi

Pressure: 30.12 "Hg

Humidity: 87%

Dew point: 32 °F

Location of KasselLocation

Historic Weather in Kassel — Graph

°F

Kassel temperature yesterday

Maximum temperature yesterday: 37 °F (at 9:50 PM)
Minimum temperature yesterday: 27 °F (at 6:20 AM)
Average temperature yesterday: 33 °F

Past Weeks' High & Low Weather Summary

 TemperatureHumidityPressure
High54 °F (Nov 11, 12:20 PM)100% (Nov 12, 5:50 AM)30.33 "Hg (Nov 12, 5:50 AM)
Low27 °F (Nov 25, 6:20 AM)58% (Nov 10, 9:50 PM)29.47 "Hg (Nov 16, 12:50 PM)
Average45 °F90%29.95 "Hg
* Reported Nov 10 9:20 PM — Nov 25 9:50 PM, Kassel, Weather by CustomWeather, © 2014

Note: Actual official high and low records may vary slightly from our data, if they occured in-between our weather recording intervals... More about our weather records

Advertising

Kassel weather history for previous 24 hours

 ConditionsComfort  
Time TempWeatherWind HumidityBarometerVisibility
9:50 PM
Nov 25
37 °FPassing clouds.9 mph93%30.21 "Hg6 mi
9:20 PM36 °FPassing clouds.9 mph100%30.21 "Hg6 mi
8:50 PM34 °FClear.8 mph100%30.21 "Hg10 mi
8:20 PM36 °FClear.8 mph93%30.21 "Hg10 mi
7:50 PM32 °FClear.6 mph93%30.24 "Hg10 mi
7:20 PM34 °FClear.6 mph93%30.24 "Hg10 mi
6:50 PM34 °FClear.3 mph100%30.24 "Hg10 mi
6:20 PM36 °FClear.6 mph100%30.24 "Hg10 mi
5:50 PM34 °FPassing clouds.3 mph93%30.24 "HgN/A
5:20 PM32 °FIce fog.2 mph100%30.24 "Hg1 mi
4:50 PM32 °FFog.1 mph100%30.24 "Hg0 mi
4:20 PM34 °FFog.1 mph100%30.24 "Hg0 mi
3:50 PM34 °FFog.1 mph100%30.27 "Hg0 mi
3:20 PM36 °FFog.1 mph100%30.27 "Hg0 mi
2:50 PM36 °FFog.2 mph100%30.27 "Hg0 mi
2:20 PM36 °FFog.3 mph100%30.27 "Hg0 mi
1:50 PM36 °FFog.1 mph100%30.27 "Hg0 mi
1:20 PM36 °FFog.1 mph100%30.30 "Hg0 mi
12:50 PM36 °FFog.2 mph100%30.30 "Hg0 mi
12:20 PM34 °FFog.1 mph100%30.30 "Hg0 mi
11:50 AM34 °FFog.2 mph100%30.33 "Hg0 mi
11:20 AM34 °FFog.1 mph100%30.33 "Hg0 mi
10:50 AM32 °FFog.2 mph100%30.33 "Hg0 mi
10:20 AM32 °FFog.2 mph100%30.33 "Hg0 mi
9:50 AM32 °FIce fog.3 mph100%30.33 "Hg0 mi
9:20 AM30 °FIce fog.5 mph100%30.33 "Hg0 mi
8:50 AM30 °FIce fog.3 mph100%30.33 "Hg0 mi
8:20 AM30 °FIce fog.2 mph100%30.33 "Hg0 mi
7:50 AM30 °FIce fog.2 mph100%30.33 "Hg0 mi
7:20 AM30 °FIce fog.1 mph93%30.30 "Hg0 mi
6:55 AM28 °FIce fog.1 mph100%30.30 "Hg0 mi
6:20 AM27 °FIce fog.1 mph100%30.33 "Hg1 mi
Weather by CustomWeather, © 2014

See weather overviewHow to use our weather pages